Location: Bayshore Village Mobile Home Park
(26.6945°N, 81.8642°W)
Time: 21:06:02
(UTC+00:00)

Sich 1 Rocket - Pass Details

Date: 17 June 2021
Orbit: 616 x 652 km, 82.5° (Epoch: 31 July)

Event Time Altitude Azimuth Distance (km) Brightness Sun altitude
Rises 00:51:20 0° 6° (N) 2,888 7.3 -6.4°
Reaches altitude 10° 00:53:44 10° 16° (NNE) 1,979 6.3 -6.9°
Maximum altitude 00:57:42 33° 81° (E) 1,030 4.3 -7.7°
Drops below altitude 10° 01:01:40 10° 146° (SSE) 1,975 5.6 -8.4°
Enters shadow 01:02:12 - 149° (SSE) 2,172 5.8 -8.5°
